Weather History for Hayward, WI

Change the Weather History Date:

Wednesday, February 15, 2012

  Actual Average Record
Temperature  
Mean Temperature 32 °F -  
Max Temperature 39 °F 25 °F 42 °F (1998)
Min Temperature 26 °F -5 °F -29 °F (2004)
Degree Days  
Heating Degree Days 32    
Moisture  
Dew Point 27 °F    
Average Humidity 82    
Maximum Humidity 93    
Minimum Humidity 61    
Precipitation  
Precipitation 0.00 in - - ()
Sea Level Pressure  
Sea Level Pressure 29.90 in    
Wind  
Wind Speed 2 mph (SSW)    
Max Wind Speed 7 mph    
Max Gust Speed -    
Visibility 4 miles    
Events Snow    
Averages and records for this station are not official NWS values.
T = Trace of Precipitation, MM = Missing Value Source: NWS Daily Summary

Daily Weather History Graph

Daily Weather History Graph

Search for Another Location

Airport:

Trip Planner

Search our weather history database for the weather conditions in past years. The results will help you decide how hot, cold, wet, or windy it might be!

Date:

Astronomy

Feb. 15, 2012 Rise Set
Actual Time 7:09 AM CST 5:31 PM CST
Civil Twilight 6:38 AM CST 6:02 PM CST
Nautical Twilight 6:03 AM CST 6:37 PM CST
Astronomical Twilight 5:28 AM CST 7:11 PM CST
Moon 2:12 AM CST (2/15) 11:16 AM CST (2/15)
Length of Visible Light 11h 23m
Length of Day
10h 22m
Last Quarter, 38% of the Moon is Illuminated
Feb 15
Last Quarter
Feb 21
New
Feb 29
First Quarter
Mar 8
Full
Mar 14
Last Quarter

Hourly Weather History & Observations

Time (CST) Temp. Windchill Dew Point Humidity Pressure Visibility Wind Dir Wind Speed Gust Speed Precip Events Conditions
12:04 AM 26.6 °F 22.6 °F 23.0 °F 86% 29.79 in 3.0 mi SSE 3.5 mph - 0.00 in Snow Light Snow
12:11 AM 26.6 °F 22.6 °F 23.0 °F 86% 29.79 in 2.5 mi South 3.5 mph - 0.00 in Snow Light Snow
12:18 AM 26.6 °F 22.6 °F 24.8 °F 93% 29.79 in 4.0 mi South 3.5 mph - 0.00 in   Overcast
12:53 AM 27.0 °F - 24.1 °F 89% 29.84 in 2.5 mi Calm Calm - 0.00 in Snow Light Snow
1:05 AM 28.4 °F - 24.8 °F 86% 29.79 in 4.0 mi Calm Calm - 0.00 in Snow Light Snow
1:14 AM 28.4 °F 24.6 °F 24.8 °F 86% 29.79 in 2.5 mi South 3.5 mph - 0.00 in Snow Light Snow
1:22 AM 26.6 °F 22.6 °F 24.8 °F 93% 29.79 in 1.0 mi South 3.5 mph - 0.00 in Snow Light Snow
1:29 AM 28.4 °F - 24.8 °F 86% 29.79 in 2.0 mi Calm Calm - 0.00 in Snow Light Snow
1:38 AM 28.4 °F - 24.8 °F 86% 29.79 in 4.0 mi Calm Calm - 0.00 in Snow Light Snow
1:53 AM 28.0 °F - 25.0 °F 88% 29.84 in 4.0 mi Calm Calm - 0.00 in   Overcast
2:53 AM 28.0 °F - 24.1 °F 85% 29.86 in 4.0 mi Calm Calm - 0.00 in   Overcast
3:53 AM 28.0 °F - 25.0 °F 88% 29.87 in 3.0 mi Calm Calm - 0.00 in Snow Light Snow
4:15 AM 28.4 °F - 24.8 °F 86% 29.82 in 2.5 mi Calm Calm - 0.00 in Snow Light Snow
4:42 AM 28.4 °F - 24.8 °F 86% 29.83 in 3.0 mi Calm Calm - 0.00 in Snow Light Snow
4:53 AM 28.0 °F - 25.0 °F 88% 29.88 in 3.0 mi Calm Calm - 0.00 in   Overcast
5:41 AM 28.4 °F - 24.8 °F 86% 29.85 in 4.0 mi Calm Calm - N/A   Overcast
5:53 AM 28.0 °F - 25.0 °F 88% 29.90 in 4.0 mi Calm Calm - N/A   Overcast
6:53 AM 28.0 °F - 25.0 °F 88% 29.92 in 4.0 mi Calm Calm - N/A   Overcast
7:34 AM 28.4 °F - 26.6 °F 93% 29.88 in 2.5 mi Calm Calm - N/A   Overcast
7:53 AM 28.9 °F - 26.1 °F 89% 29.95 in 2.0 mi Calm Calm - N/A   Overcast
8:53 AM 30.0 °F 26.5 °F 27.0 °F 88% 29.96 in 2.0 mi Variable 3.5 mph - N/A   Overcast
9:53 AM 30.9 °F 27.5 °F 27.0 °F 85% 29.96 in 2.5 mi WSW 3.5 mph - N/A   Overcast
10:29 AM 32.0 °F 28.7 °F 28.4 °F 87% 29.92 in 3.0 mi Variable 3.5 mph - N/A   Overcast
10:53 AM 32.0 °F 28.7 °F 27.0 °F 82% 29.98 in 3.0 mi Variable 3.5 mph - N/A   Haze
11:53 AM 34.0 °F 31.0 °F 27.0 °F 75% 29.98 in 6.0 mi Variable 3.5 mph - N/A   Haze
12:46 PM 35.6 °F 30.7 °F 28.4 °F 75% 29.91 in 6.0 mi Variable 5.8 mph - N/A   Haze
1:02 PM 35.6 °F 31.7 °F 28.4 °F 75% 29.91 in 6.0 mi Variable 4.6 mph - N/A   Haze
1:09 PM 35.6 °F 31.7 °F 26.6 °F 70% 29.91 in 6.0 mi South 4.6 mph - N/A   Haze
1:19 PM 35.6 °F - 28.4 °F 75% 29.91 in 7.0 mi Calm Calm - N/A   Partly Cloudy
1:53 PM 37.0 °F 32.4 °F 28.0 °F 70% 29.96 in 7.0 mi Variable 5.8 mph - N/A   Mostly Cloudy
2:31 PM 39.2 °F 35.9 °F 26.6 °F 61% 29.92 in 10.0 mi Variable 4.6 mph - N/A   Scattered Clouds
2:53 PM 39.0 °F 34.0 °F 27.0 °F 62% 29.96 in 9.0 mi West 6.9 mph - N/A   Scattered Clouds
3:53 PM 39.0 °F 35.7 °F 28.0 °F 65% 29.96 in 8.0 mi Variable 4.6 mph - N/A   Overcast
4:53 PM 37.9 °F 33.5 °F 28.0 °F 68% 29.96 in 7.0 mi South 5.8 mph - N/A   Overcast
5:53 PM 37.0 °F - 28.0 °F 70% 29.98 in 8.0 mi Calm Calm - N/A   Overcast
6:53 PM 35.1 °F - 28.9 °F 78% 29.99 in 3.0 mi Calm Calm - 0.00 in Snow Light Snow
7:53 PM 34.0 °F 29.8 °F 28.9 °F 82% 29.99 in 4.0 mi SW 4.6 mph - 0.00 in Snow Light Snow
8:53 PM 34.0 °F - 30.0 °F 85% 29.99 in 5.0 mi Calm Calm - 0.00 in   Overcast
9:46 PM 33.8 °F 29.6 °F 30.2 °F 87% 29.95 in 5.0 mi SW 4.6 mph - N/A   Overcast
9:53 PM 34.0 °F - 30.0 °F 85% 30.00 in 5.0 mi Calm Calm - N/A   Overcast
10:04 PM 33.8 °F 30.8 °F 30.2 °F 87% 29.95 in 5.0 mi SW 3.5 mph - N/A   Overcast
10:32 PM 33.8 °F - 30.2 °F 87% 29.95 in 5.0 mi Calm Calm - N/A   Overcast
10:53 PM 34.0 °F - 30.0 °F 85% 30.00 in 5.0 mi Calm Calm - N/A   Overcast
11:34 PM 33.8 °F 30.8 °F 30.2 °F 87% 29.96 in 5.0 mi SW 3.5 mph - N/A   Overcast
11:53 PM 34.0 °F - 30.0 °F 85% 30.00 in 5.0 mi Calm Calm - N/A   Overcast